Overview Statistics Trail Chart Weather Telemetry Raw packets
 

This is the latest recevied weather packets stored in our database for station/object KB4RFE. If no packets are shown the sender has not sent any weather packets the latest 10 day(s).

<< 22 23 24 25 26 27 28 >>
Time Temp. Humidity Pressure Rain* Wind** Luminosity Snow
1788476723 28.89° C 85% 1018.9 hPa 0 mm - 23 W/m² -
1788476421 29.44° C 84% 1019 hPa 0 mm - 31 W/m² -
1788476120 29.44° C 84% 1019.1 hPa 0 mm - 30 W/m² -
1788475816 29.44° C 83% 1019 hPa 0 mm - 37 W/m² -
1788475512 29.44° C 83% 1018.9 hPa 0 mm - 37 W/m² -
1788475208 29.44° C 82% 1018.8 hPa 0 mm - 31 W/m² -
1788474907 29.44° C 82% 1019 hPa 0 mm - 39 W/m² -
1788474606 30° C 82% 1019.2 hPa 0 mm - 50 W/m² -
1788474301 30° C 81% 1019 hPa 0 mm - 42 W/m² -
1788474000 30° C 82% 1019.1 hPa 0 mm - 45 W/m² -
1788473696 30° C 81% 1019.2 hPa 0 mm - 34 W/m² -
1788473425 30° C 82% 1019.1 hPa 0 mm - 40 W/m² -
1788473093 30° C 81% 1019.1 hPa 0 mm - 48 W/m² -
1788472790 30.56° C 80% 1019.1 hPa 0 mm - 55 W/m² -
1788472487 30.56° C 81% 1019.1 hPa 0 mm - 46 W/m² -
1788472185 30.56° C 80% 1019.2 hPa 0 mm - 86 W/m² -
1788471881 31.11° C 80% 1019.3 hPa 0 mm - 54 W/m² -
1788471581 31.11° C 78% 1019.1 hPa 0 mm - 83 W/m² -
1788471276 31.11° C 80% 1019.4 hPa 0 mm - 82 W/m² -
1788470973 31.11° C 79% 1019.4 hPa 0 mm - 76 W/m² -
1788470668 31.11° C 79% 1019.5 hPa 0 mm - 80 W/m² -
1788470368 31.11° C 79% 1019.4 hPa 0 mm - 86 W/m² -
1788470063 31.11° C 78% 1019.5 hPa 0 mm - 75 W/m² -
1788469760 31.11° C 78% 1019.3 hPa 0 mm - 102 W/m² -
1788469459 31.67° C 76% 1019.5 hPa 0 mm - 92 W/m² -

* Rain latest hour (hover to see other rain measurements)
** Current wind speed in m/s (hover to see current wind gust speed)